Time,TemperatureF,DewpointF,PressureIn,WindDirection,WindDirectionDegrees,WindSpeedMPH,WindSpeedGustMPH,Humidity,HourlyPrecipIn,Conditions,Clouds,dailyrainin,SoftwareType,DateUTC
2013-04-20 00:01:00,47.1,38.9,30.14,WSW,237,0.0,0.0,73,0.00,,CLR,0.00,VWS V14.01,2013-04-20 05:01:00,
2013-04-20 00:06:00,47.7,39.1,30.14,WSW,237,0.0,0.0,72,0.00,,CLR,0.00,VWS V14.01,2013-04-20 05:06:00,
2013-04-20 00:11:00,48.0,39.1,30.14,SW,236,0.0,0.0,71,0.00,,CLR,0.00,VWS V14.01,2013-04-20 05:11:00,
2013-04-20 00:16:00,48.5,39.2,30.14,SW,220,0.0,0.0,70,0.00,,CLR,0.00,VWS V14.01,2013-04-20 05:16:00,
2013-04-20 00:21:00,48.8,39.1,30.14,SSE,161,0.0,0.0,69,0.00,,CLR,0.00,VWS V14.01,2013-04-20 05:21:00,
2013-04-20 00:26:00,48.9,39.2,30.14,SSE,161,0.0,0.0,69,0.00,,CLR,0.00,VWS V14.01,2013-04-20 05:26:00,
2013-04-20 00:31:00,49.1,39.0,30.14,SSE,161,0.0,0.0,68,0.00,,CLR,0.00,VWS V14.01,2013-04-20 05:31:00,
2013-04-20 00:37:00,49.4,39.3,30.14,SSE,161,0.0,0.0,68,0.00,,CLR,0.00,VWS V14.01,2013-04-20 05:37:00,
2013-04-20 00:42:00,49.5,39.0,30.14,SSE,161,0.0,0.0,67,0.00,,CLR,0.00,VWS V14.01,2013-04-20 05:42:00,
2013-04-20 00:47:00,49.8,39.3,30.14,SSE,161,0.0,0.0,67,0.00,,CLR,0.00,VWS V14.01,2013-04-20 05:47:00,
2013-04-20 00:52:00,50.1,39.2,30.14,SSE,167,0.0,2.0,66,0.00,,CLR,0.00,VWS V14.01,2013-04-20 05:52:00,
2013-04-20 00:57:00,50.4,39.1,30.14,SSE,165,0.0,3.0,65,0.00,,CLR,0.00,VWS V14.01,2013-04-20 05:57:00,
2013-04-20 01:02:00,50.7,39.0,30.14,SSE,156,0.0,2.0,64,0.00,,CLR,0.00,VWS V14.01,2013-04-20 06:02:00,
2013-04-20 01:07:00,51.0,38.9,30.14,South,171,1.0,5.0,63,0.00,,CLR,0.00,VWS V14.01,2013-04-20 06:07:00,
2013-04-20 01:12:00,51.1,39.0,30.14,SSE,155,0.0,0.0,63,0.00,,CLR,0.00,VWS V14.01,2013-04-20 06:12:00,
2013-04-20 01:17:00,51.1,39.0,30.13,SE,130,0.0,5.0,63,0.00,,CLR,0.00,VWS V14.01,2013-04-20 06:17:00,
2013-04-20 01:22:00,51.1,38.1,30.13,SE,132,0.0,0.0,61,0.00,,CLR,0.00,VWS V14.01,2013-04-20 06:22:00,
2013-04-20 01:27:00,51.3,38.7,30.13,SE,140,0.0,3.0,62,0.00,,CLR,0.00,VWS V14.01,2013-04-20 06:27:00,
2013-04-20 01:32:00,51.3,38.7,30.13,SE,141,1.0,3.0,62,0.00,,CLR,0.00,VWS V14.01,2013-04-20 06:32:00,
2013-04-20 01:37:00,51.1,38.1,30.13,SSE,148,2.0,5.0,61,0.00,,CLR,0.00,VWS V14.01,2013-04-20 06:37:00,
2013-04-20 01:42:00,51.1,38.1,30.13,SSE,155,0.0,2.0,61,0.00,,CLR,0.00,VWS V14.01,2013-04-20 06:42:00,
2013-04-20 01:47:00,51.1,38.1,30.13,SSE,155,3.0,3.0,61,0.00,,CLR,0.00,VWS V14.01,2013-04-20 06:47:00,
2013-04-20 01:52:00,51.1,37.7,30.13,SSE,155,0.0,1.0,60,0.00,,CLR,0.00,VWS V14.01,2013-04-20 06:52:00,
2013-04-20 01:57:00,51.1,37.7,30.13,SSE,164,1.0,5.0,60,0.00,,CLR,0.00,VWS V14.01,2013-04-20 06:57:00,
2013-04-20 02:02:00,51.1,37.3,30.13,SSE,151,0.0,0.0,59,0.00,,CLR,0.00,VWS V14.01,2013-04-20 07:02:00,
2013-04-20 02:07:00,51.1,37.7,30.13,SE,145,0.0,3.0,60,0.00,,CLR,0.00,VWS V14.01,2013-04-20 07:07:00,
2013-04-20 02:12:00,51.1,37.3,30.13,SSE,161,0.0,0.0,59,0.00,,CLR,0.00,VWS V14.01,2013-04-20 07:12:00,
2013-04-20 02:17:00,51.0,37.6,30.12,SSE,165,0.0,5.0,60,0.00,,CLR,0.00,VWS V14.01,2013-04-20 07:17:00,
2013-04-20 02:22:00,51.0,37.2,30.12,South,177,0.0,0.0,59,0.00,,CLR,0.00,VWS V14.01,2013-04-20 07:22:00,
2013-04-20 02:27:00,51.0,38.0,30.12,SSE,167,0.0,2.0,61,0.00,,CLR,0.00,VWS V14.01,2013-04-20 07:27:00,
2013-04-20 02:32:00,51.0,37.6,30.12,SE,145,5.0,7.0,60,0.00,,CLR,0.00,VWS V14.01,2013-04-20 07:32:00,
2013-04-20 02:37:00,51.0,37.6,30.12,SSE,165,1.0,7.0,60,0.00,,CLR,0.00,VWS V14.01,2013-04-20 07:37:00,
2013-04-20 02:42:00,51.0,37.6,30.12,SE,134,0.0,3.0,60,0.00,,CLR,0.00,VWS V14.01,2013-04-20 07:42:00,
2013-04-20 02:47:00,51.0,37.6,30.12,SE,146,2.0,6.0,60,0.00,,CLR,0.00,VWS V14.01,2013-04-20 07:47:00,
2013-04-20 02:52:00,50.8,37.8,30.12,SE,146,0.0,0.0,61,0.00,,CLR,0.00,VWS V14.01,2013-04-20 07:52:00,
2013-04-20 02:57:00,50.8,37.8,30.12,SE,146,0.0,3.0,61,0.00,,CLR,0.00,VWS V14.01,2013-04-20 07:57:00,
2013-04-20 03:02:00,50.8,37.8,30.11,SE,139,5.0,5.0,61,0.00,,CLR,0.00,VWS V14.01,2013-04-20 08:02:00,
2013-04-20 03:07:00,50.5,37.2,30.11,SSE,157,3.0,7.0,60,0.00,,CLR,0.00,VWS V14.01,2013-04-20 08:07:00,
2013-04-20 03:12:00,50.5,37.2,30.11,SSE,156,0.0,0.0,60,0.00,,CLR,0.00,VWS V14.01,2013-04-20 08:12:00,
2013-04-20 03:17:00,50.4,36.6,30.11,SSE,155,0.0,6.0,59,0.00,,CLR,0.00,VWS V14.01,2013-04-20 08:17:00,
2013-04-20 03:22:00,50.2,36.9,30.11,SE,142,0.0,3.0,60,0.00,,CLR,0.00,VWS V14.01,2013-04-20 08:22:00,
2013-04-20 03:27:00,50.1,36.8,30.11,SE,142,0.0,3.0,60,0.00,,CLR,0.00,VWS V14.01,2013-04-20 08:27:00,
2013-04-20 03:32:00,50.1,36.8,30.10,SE,142,0.0,2.0,60,0.00,,CLR,0.00,VWS V14.01,2013-04-20 08:32:00,
2013-04-20 03:37:00,49.9,36.2,30.10,SE,142,0.0,5.0,59,0.00,,CLR,0.00,VWS V14.01,2013-04-20 08:37:00,
2013-04-20 03:42:00,49.8,36.5,30.10,SE,142,0.0,1.0,60,0.00,,CLR,0.00,VWS V14.01,2013-04-20 08:42:00,
2013-04-20 03:47:00,49.8,36.9,30.10,SE,142,0.0,1.0,61,0.00,,CLR,0.00,VWS V14.01,2013-04-20 08:47:00,
2013-04-20 03:52:00,49.6,36.7,30.10,SE,142,0.0,0.0,61,0.00,,CLR,0.00,VWS V14.01,2013-04-20 08:52:00,
2013-04-20 03:57:00,49.6,36.7,30.10,SE,142,0.0,0.0,61,0.00,,CLR,0.00,VWS V14.01,2013-04-20 08:57:00,
2013-04-20 04:02:00,49.5,37.0,30.10,SE,142,0.0,0.0,62,0.00,,CLR,0.00,VWS V14.01,2013-04-20 09:02:00,
2013-04-20 04:07:00,49.4,36.9,30.10,SE,142,0.0,0.0,62,0.00,,CLR,0.00,VWS V14.01,2013-04-20 09:07:00,
2013-04-20 04:12:00,49.2,37.2,30.10,SE,142,0.0,0.0,63,0.00,,CLR,0.00,VWS V14.01,2013-04-20 09:12:00,
2013-04-20 04:17:00,49.2,37.2,30.11,SE,142,0.0,0.0,63,0.00,,CLR,0.00,VWS V14.01,2013-04-20 09:17:00,
2013-04-20 04:22:00,49.1,37.1,30.11,SE,142,0.0,0.0,63,0.00,,CLR,0.00,VWS V14.01,2013-04-20 09:22:00,
2013-04-20 04:27:00,49.1,37.5,30.11,SE,142,0.0,0.0,64,0.00,,CLR,0.00,VWS V14.01,2013-04-20 09:27:00,
2013-04-20 04:32:00,48.9,37.7,30.11,SE,142,0.0,0.0,65,0.00,,CLR,0.00,VWS V14.01,2013-04-20 09:32:00,
2013-04-20 04:37:00,48.8,37.6,30.11,SE,142,0.0,0.0,65,0.00,,CLR,0.00,VWS V14.01,2013-04-20 09:37:00,
2013-04-20 04:42:00,48.6,37.0,30.11,SE,142,0.0,0.0,64,0.00,,CLR,0.00,VWS V14.01,2013-04-20 09:42:00,
2013-04-20 04:47:00,48.5,37.3,30.11,SE,142,0.0,3.0,65,0.00,,CLR,0.00,VWS V14.01,2013-04-20 09:47:00,
2013-04-20 04:52:00,48.5,37.7,30.11,SE,142,0.0,0.0,66,0.00,,CLR,0.00,VWS V14.01,2013-04-20 09:52:00,
2013-04-20 04:57:00,48.3,37.5,30.11,SE,143,0.0,6.0,66,0.00,,CLR,0.00,VWS V14.01,2013-04-20 09:57:00,
2013-04-20 05:02:00,48.2,37.0,30.11,SE,143,3.0,3.0,65,0.00,,CLR,0.00,VWS V14.01,2013-04-20 10:02:00,
2013-04-20 05:07:00,48.2,37.4,30.11,SE,143,0.0,3.0,66,0.00,,CLR,0.00,VWS V14.01,2013-04-20 10:07:00,
2013-04-20 05:12:00,48.0,37.2,30.11,SE,143,0.0,0.0,66,0.00,,CLR,0.00,VWS V14.01,2013-04-20 10:12:00,
2013-04-20 05:17:00,47.9,36.7,30.11,SE,143,0.0,0.0,65,0.00,,CLR,0.00,VWS V14.01,2013-04-20 10:17:00,
2013-04-20 05:22:00,47.7,36.5,30.11,SE,143,0.0,0.0,65,0.00,,CLR,0.00,VWS V14.01,2013-04-20 10:22:00,
2013-04-20 05:27:00,47.7,35.7,30.11,SSW,197,0.0,5.0,63,0.00,,CLR,0.00,VWS V14.01,2013-04-20 10:27:00,
2013-04-20 05:32:00,47.7,35.7,30.10,SSW,197,0.0,4.0,63,0.00,,CLR,0.00,VWS V14.01,2013-04-20 10:32:00,
2013-04-20 05:37:00,47.9,35.9,30.10,SSW,197,0.0,5.0,63,0.00,,CLR,0.00,VWS V14.01,2013-04-20 10:37:00,
2013-04-20 05:42:00,47.9,35.9,30.10,SSW,197,0.0,0.0,63,0.00,,CLR,0.00,VWS V14.01,2013-04-20 10:42:00,
2013-04-20 05:47:00,47.9,36.3,30.11,SSW,197,0.0,0.0,64,0.00,,CLR,0.00,VWS V14.01,2013-04-20 10:47:00,
2013-04-20 05:52:00,47.9,36.3,30.11,SSW,197,0.0,0.0,64,0.00,,CLR,0.00,VWS V14.01,2013-04-20 10:52:00,
2013-04-20 05:57:00,48.0,36.4,30.11,South,188,4.0,4.0,64,0.00,,CLR,0.00,VWS V14.01,2013-04-20 10:57:00,
2013-04-20 06:02:00,48.0,36.4,30.11,South,188,0.0,5.0,64,0.00,,CLR,0.00,VWS V14.01,2013-04-20 11:02:00,
2013-04-20 06:07:00,48.0,36.4,30.11,South,188,0.0,5.0,64,0.00,,CLR,0.00,VWS V14.01,2013-04-20 11:07:00,
2013-04-20 06:12:00,48.0,36.4,30.11,South,188,4.0,5.0,64,0.00,,CLR,0.00,VWS V14.01,2013-04-20 11:12:00,
2013-04-20 06:17:00,48.0,36.4,30.11,South,188,1.0,5.0,64,0.00,,CLR,0.00,VWS V14.01,2013-04-20 11:17:00,
2013-04-20 06:22:00,48.0,36.4,30.11,South,188,0.0,0.0,64,0.00,,CLR,0.00,VWS V14.01,2013-04-20 11:22:00,
2013-04-20 06:27:00,48.0,36.0,30.11,South,188,0.0,0.0,63,0.00,,CLR,0.00,VWS V14.01,2013-04-20 11:27:00,
2013-04-20 06:32:00,47.9,35.5,30.11,South,188,0.0,0.0,62,0.00,,CLR,0.00,VWS V14.01,2013-04-20 11:32:00,
2013-04-20 06:37:00,47.7,35.3,30.11,South,188,0.0,0.0,62,0.00,,CLR,0.00,VWS V14.01,2013-04-20 11:37:00,
2013-04-20 06:42:00,47.6,35.2,30.11,South,188,0.0,0.0,62,0.00,,CLR,0.00,VWS V14.01,2013-04-20 11:42:00,
2013-04-20 06:47:00,47.6,35.2,30.11,South,174,2.0,6.0,62,0.00,,CLR,0.00,VWS V14.01,2013-04-20 11:47:00,
2013-04-20 06:52:00,47.4,34.6,30.11,South,175,0.0,3.0,61,0.00,,CLR,0.00,VWS V14.01,2013-04-20 11:52:00,
2013-04-20 06:57:00,47.4,34.6,30.11,South,169,0.0,5.0,61,0.00,,CLR,0.00,VWS V14.01,2013-04-20 11:57:00,
2013-04-20 07:02:00,47.4,34.6,30.11,SSE,168,2.0,5.0,61,0.00,,CLR,0.00,VWS V14.01,2013-04-20 12:02:00,
2013-04-20 07:07:00,47.6,35.2,30.11,SSE,168,0.0,5.0,62,0.00,,CLR,0.00,VWS V14.01,2013-04-20 12:07:00,
2013-04-20 07:12:00,47.6,35.2,30.11,SSE,168,3.0,3.0,62,0.00,,CLR,0.00,VWS V14.01,2013-04-20 12:12:00,
2013-04-20 07:17:00,47.6,34.8,30.12,SSE,168,0.0,5.0,61,0.00,,CLR,0.00,VWS V14.01,2013-04-20 12:17:00,
2013-04-20 07:22:00,47.7,34.9,30.12,SSE,168,0.0,1.0,61,0.00,,CLR,0.00,VWS V14.01,2013-04-20 12:22:00,
2013-04-20 07:27:00,47.9,34.7,30.12,SSE,168,0.0,5.0,60,0.00,,CLR,0.00,VWS V14.01,2013-04-20 12:27:00,
2013-04-20 07:32:00,48.0,35.2,30.12,SSE,168,0.0,0.0,61,0.00,,CLR,0.00,VWS V14.01,2013-04-20 12:32:00,
2013-04-20 07:37:00,48.2,35.0,30.12,SSE,168,0.0,0.0,60,0.00,,CLR,0.00,VWS V14.01,2013-04-20 12:37:00,
2013-04-20 07:42:00,48.5,35.3,30.12,South,169,0.0,4.0,60,0.00,,CLR,0.00,VWS V14.01,2013-04-20 12:42:00,
2013-04-20 07:47:00,48.8,36.0,30.12,South,169,0.0,4.0,61,0.00,,CLR,0.00,VWS V14.01,2013-04-20 12:47:00,
2013-04-20 07:52:00,49.2,35.9,30.12,South,169,0.0,0.0,60,0.00,,CLR,0.00,VWS V14.01,2013-04-20 12:52:00,
2013-04-20 07:57:00,49.5,35.3,30.12,SSE,167,0.0,5.0,58,0.00,,CLR,0.00,VWS V14.01,2013-04-20 12:57:00,
2013-04-20 08:02:00,49.8,35.2,30.13,SSE,167,0.0,0.0,57,0.00,,CLR,0.00,VWS V14.01,2013-04-20 13:02:00,
2013-04-20 08:08:00,50.2,35.6,30.13,SSE,167,0.0,0.0,57,0.00,,CLR,0.00,VWS V14.01,2013-04-20 13:08:00,
2013-04-20 08:13:00,50.8,35.2,30.13,SSE,167,3.0,4.0,55,0.00,,CLR,0.00,VWS V14.01,2013-04-20 13:13:00,
2013-04-20 08:18:00,51.0,34.5,30.14,South,173,4.0,9.0,53,0.00,,CLR,0.00,VWS V14.01,2013-04-20 13:18:00,
2013-04-20 08:23:00,51.3,36.2,30.14,South,169,5.0,5.0,56,0.00,,CLR,0.00,VWS V14.01,2013-04-20 13:23:00,
2013-04-20 08:28:00,51.6,35.0,30.14,SSE,161,5.0,6.0,53,0.00,,CLR,0.00,VWS V14.01,2013-04-20 13:28:00,
2013-04-20 08:33:00,52.0,37.2,30.14,SSE,165,3.0,4.0,57,0.00,,CLR,0.00,VWS V14.01,2013-04-20 13:33:00,
2013-04-20 08:38:00,51.9,36.3,30.14,ESE,107,1.0,7.0,55,0.00,,CLR,0.00,VWS V14.01,2013-04-20 13:38:00,
2013-04-20 08:43:00,51.7,37.0,30.14,SE,125,0.0,3.0,57,0.00,,CLR,0.00,VWS V14.01,2013-04-20 13:43:00,
2013-04-20 08:48:00,52.8,37.5,30.14,ESE,121,0.0,3.0,56,0.00,,CLR,0.00,VWS V14.01,2013-04-20 13:48:00,
2013-04-20 08:53:00,53.5,38.2,30.14,ESE,118,0.0,0.0,56,0.00,,CLR,0.00,VWS V14.01,2013-04-20 13:53:00,
2013-04-20 08:58:00,53.9,37.2,30.14,SSE,157,3.0,5.0,53,0.00,,CLR,0.00,VWS V14.01,2013-04-20 13:58:00,
2013-04-20 09:03:00,54.7,39.3,30.14,SSE,159,0.0,1.0,56,0.00,,CLR,0.00,VWS V14.01,2013-04-20 14:03:00,
2013-04-20 09:08:00,55.3,38.5,30.14,SSE,162,0.0,3.0,53,0.00,,CLR,0.00,VWS V14.01,2013-04-20 14:08:00,
2013-04-20 09:13:00,55.4,39.5,30.14,SE,135,0.0,4.0,55,0.00,,CLR,0.00,VWS V14.01,2013-04-20 14:13:00,
2013-04-20 09:18:00,55.7,38.8,30.14,SSE,158,1.0,7.0,53,0.00,,CLR,0.00,VWS V14.01,2013-04-20 14:18:00,
2013-04-20 09:23:00,56.5,39.1,30.14,SSE,160,5.0,5.0,52,0.00,,CLR,0.00,VWS V14.01,2013-04-20 14:23:00,
2013-04-20 09:28:00,56.9,40.0,30.14,South,170,4.0,6.0,53,0.00,,CLR,0.00,VWS V14.01,2013-04-20 14:28:00,
2013-04-20 09:33:00,57.3,39.3,30.14,ESE,120,3.0,6.0,51,0.00,,CLR,0.00,VWS V14.01,2013-04-20 14:33:00,
2013-04-20 09:38:00,58.1,40.1,30.14,SSE,155,2.0,7.0,51,0.00,,CLR,0.00,VWS V14.01,2013-04-20 14:38:00,
2013-04-20 09:43:00,58.6,41.0,30.14,SSE,159,4.0,6.0,52,0.00,,CLR,0.00,VWS V14.01,2013-04-20 14:43:00,
2013-04-20 09:48:00,59.2,41.1,30.14,SSE,167,4.0,6.0,51,0.00,,CLR,0.00,VWS V14.01,2013-04-20 14:48:00,
2013-04-20 09:53:00,59.6,38.8,30.14,South,169,3.0,8.0,46,0.00,,CLR,0.00,VWS V14.01,2013-04-20 14:53:00,
2013-04-20 09:58:00,60.4,39.5,30.14,SSE,151,0.0,9.0,46,0.00,,CLR,0.00,VWS V14.01,2013-04-20 14:58:00,
2013-04-20 10:03:00,60.4,35.3,30.15,South,171,6.0,14.0,39,0.00,,CLR,0.00,VWS V14.01,2013-04-20 15:03:00,
2013-04-20 10:08:00,60.9,36.4,30.15,South,184,9.0,14.0,40,0.00,,CLR,0.00,VWS V14.01,2013-04-20 15:08:00,
2013-04-20 10:13:00,61.2,35.4,30.15,SSE,161,4.0,12.0,38,0.00,,CLR,0.00,VWS V14.01,2013-04-20 15:13:00,
2013-04-20 10:18:00,61.6,36.4,30.14,SSW,193,13.0,16.0,39,0.00,,CLR,0.00,VWS V14.01,2013-04-20 15:18:00,
2013-04-20 10:23:00,62.0,36.8,30.14,SSE,152,4.0,11.0,39,0.00,,CLR,0.00,VWS V14.01,2013-04-20 15:23:00,
2013-04-20 10:28:00,62.7,34.7,30.14,SE,145,11.0,11.0,35,0.00,,CLR,0.00,VWS V14.01,2013-04-20 15:28:00,
2013-04-20 10:33:00,62.9,35.6,30.14,SSE,163,6.0,12.0,36,0.00,,CLR,0.00,VWS V14.01,2013-04-20 15:33:00,
2013-04-20 10:38:00,63.2,35.1,30.14,ESE,119,5.0,13.0,35,0.00,,CLR,0.00,VWS V14.01,2013-04-20 15:38:00,
2013-04-20 10:43:00,63.5,36.8,30.14,ESE,123,2.0,11.0,37,0.00,,CLR,0.00,VWS V14.01,2013-04-20 15:43:00,
2013-04-20 10:48:00,63.7,36.3,30.14,SSE,165,11.0,11.0,36,0.00,,CLR,0.00,VWS V14.01,2013-04-20 15:48:00,
2013-04-20 10:53:00,64.2,36.7,30.14,SE,134,6.0,11.0,36,0.00,,CLR,0.00,VWS V14.01,2013-04-20 15:53:00,
2013-04-20 10:58:00,64.0,34.3,30.14,SSE,159,5.0,13.0,33,0.00,,CLR,0.00,VWS V14.01,2013-04-20 15:58:00,
2013-04-20 11:03:00,64.0,34.3,30.14,SE,138,6.0,19.0,33,0.00,,CLR,0.00,VWS V14.01,2013-04-20 16:03:00,
2013-04-20 11:08:00,64.3,35.4,30.14,SSE,160,4.0,19.0,34,0.00,,CLR,0.00,VWS V14.01,2013-04-20 16:08:00,
2013-04-20 11:13:00,64.3,34.6,30.14,South,174,7.0,16.0,33,0.00,,CLR,0.00,VWS V14.01,2013-04-20 16:13:00,
2013-04-20 11:19:00,64.7,37.2,30.14,SSE,153,10.0,16.0,36,0.00,,CLR,0.00,VWS V14.01,2013-04-20 16:19:00,
2013-04-20 11:23:00,64.7,35.7,30.14,SSE,157,5.0,12.0,34,0.00,,CLR,0.00,VWS V14.01,2013-04-20 16:23:00,
2013-04-20 11:28:00,64.8,36.5,30.14,SSE,157,6.0,13.0,35,0.00,,CLR,0.00,VWS V14.01,2013-04-20 16:28:00,
2013-04-20 11:33:00,64.7,35.7,30.14,SSE,167,12.0,14.0,34,0.00,,CLR,0.00,VWS V14.01,2013-04-20 16:33:00,
2013-04-20 11:38:00,65.2,36.2,30.14,SSE,167,5.0,14.0,34,0.00,,CLR,0.00,VWS V14.01,2013-04-20 16:38:00,
2013-04-20 11:44:00,65.2,36.2,30.14,SSE,149,13.0,13.0,34,0.00,,CLR,0.00,VWS V14.01,2013-04-20 16:44:00,
2013-04-20 11:49:00,65.6,38.0,30.14,SE,140,8.0,15.0,36,0.00,,CLR,0.00,VWS V14.01,2013-04-20 16:49:00,
2013-04-20 11:54:00,65.8,37.4,30.14,SE,130,9.0,14.0,35,0.00,,CLR,0.00,VWS V14.01,2013-04-20 16:54:00,
2013-04-20 11:59:00,66.0,38.3,30.14,SE,126,4.0,15.0,36,0.00,,CLR,0.00,VWS V14.01,2013-04-20 16:59:00,
2013-04-20 12:04:00,66.1,39.1,30.13,SSE,155,6.0,15.0,37,0.00,,CLR,0.00,VWS V14.01,2013-04-20 17:04:00,
2013-04-20 12:09:00,66.1,38.4,30.13,SE,140,2.0,15.0,36,0.00,,CLR,0.00,VWS V14.01,2013-04-20 17:09:00,
2013-04-20 12:14:00,66.3,38.6,30.13,SSE,161,13.0,14.0,36,0.00,,CLR,0.00,VWS V14.01,2013-04-20 17:14:00,
2013-04-20 12:19:00,66.8,38.3,30.12,SE,126,4.0,14.0,35,0.00,,CLR,0.00,VWS V14.01,2013-04-20 17:19:00,
2013-04-20 12:24:00,67.1,38.6,30.12,SE,145,9.0,15.0,35,0.00,,CLR,0.00,VWS V14.01,2013-04-20 17:24:00,
2013-04-20 12:29:00,67.4,40.9,30.12,SE,136,5.0,15.0,38,0.00,,CLR,0.00,VWS V14.01,2013-04-20 17:29:00,
2013-04-20 12:34:00,67.3,39.5,30.11,SSE,163,4.0,9.0,36,0.00,,CLR,0.00,VWS V14.01,2013-04-20 17:34:00,
2013-04-20 12:39:00,67.1,34.7,30.11,SSE,152,3.0,10.0,30,0.00,,CLR,0.00,VWS V14.01,2013-04-20 17:39:00,
2013-04-20 12:44:00,67.6,36.7,30.11,SE,135,2.0,7.0,32,0.00,,CLR,0.00,VWS V14.01,2013-04-20 17:44:00,
2013-04-20 12:49:00,67.9,37.8,30.10,SE,126,0.0,12.0,33,0.00,,CLR,0.00,VWS V14.01,2013-04-20 17:49:00,
2013-04-20 12:54:00,67.9,37.8,30.10,ESE,114,9.0,9.0,33,0.00,,CLR,0.00,VWS V14.01,2013-04-20 17:54:00,
2013-04-20 12:59:00,68.1,37.9,30.10,ESE,111,5.0,10.0,33,0.00,,CLR,0.00,VWS V14.01,2013-04-20 17:59:00,
2013-04-20 13:04:00,68.4,40.4,30.09,ESE,107,6.0,11.0,36,0.00,,CLR,0.00,VWS V14.01,2013-04-20 18:04:00,
2013-04-20 13:09:00,68.3,35.7,30.09,ESE,117,10.0,14.0,30,0.00,,CLR,0.00,VWS V14.01,2013-04-20 18:09:00,
2013-04-20 13:14:00,68.4,36.6,30.09,East,91,4.0,10.0,31,0.00,,CLR,0.00,VWS V14.01,2013-04-20 18:14:00,
2013-04-20 13:19:00,68.4,35.8,30.09,ESE,119,4.0,13.0,30,0.00,,CLR,0.00,VWS V14.01,2013-04-20 18:19:00,
2013-04-20 13:24:00,68.6,39.9,30.09,East,84,5.0,12.0,35,0.00,,CLR,0.00,VWS V14.01,2013-04-20 18:24:00,
2013-04-20 13:29:00,68.4,34.9,30.09,SE,130,0.0,12.0,29,0.00,,CLR,0.00,VWS V14.01,2013-04-20 18:29:00,
2013-04-20 13:34:00,68.6,40.6,30.08,SE,134,6.0,12.0,36,0.00,,CLR,0.00,VWS V14.01,2013-04-20 18:34:00,
2013-04-20 13:39:00,68.8,37.8,30.08,SE,134,5.0,13.0,32,0.00,,CLR,0.00,VWS V14.01,2013-04-20 18:39:00,
2013-04-20 13:44:00,68.4,38.2,30.08,ESE,122,6.0,13.0,33,0.00,,CLR,0.00,VWS V14.01,2013-04-20 18:44:00,
2013-04-20 13:49:00,68.6,36.0,30.07,ESE,103,7.0,13.0,30,0.00,,CLR,0.00,VWS V14.01,2013-04-20 18:49:00,
2013-04-20 13:54:00,68.4,36.6,30.07,SE,143,4.0,11.0,31,0.00,,CLR,0.00,VWS V14.01,2013-04-20 18:54:00,
2013-04-20 13:59:00,68.4,34.0,30.07,ESE,113,7.0,15.0,28,0.00,,CLR,0.00,VWS V14.01,2013-04-20 18:59:00,
2013-04-20 14:04:00,68.6,37.6,30.07,SE,136,4.0,11.0,32,0.00,,CLR,0.00,VWS V14.01,2013-04-20 19:04:00,
2013-04-20 14:09:00,68.6,36.0,30.07,SE,126,6.0,12.0,30,0.00,,CLR,0.00,VWS V14.01,2013-04-20 19:09:00,
2013-04-20 14:14:00,68.9,40.2,30.07,ESE,107,0.0,12.0,35,0.00,,CLR,0.00,VWS V14.01,2013-04-20 19:14:00,
2013-04-20 14:19:00,69.1,38.8,30.06,SE,132,11.0,13.0,33,0.00,,CLR,0.00,VWS V14.01,2013-04-20 19:19:00,
2013-04-20 14:24:00,68.9,34.5,30.06,ESE,106,5.0,15.0,28,0.00,,CLR,0.00,VWS V14.01,2013-04-20 19:24:00,
2013-04-20 14:29:00,69.4,38.3,30.06,ESE,120,2.0,15.0,32,0.00,,CLR,0.00,VWS V14.01,2013-04-20 19:29:00,
2013-04-20 14:34:00,69.6,36.8,30.04,ESE,118,6.0,10.0,30,0.00,,CLR,0.00,VWS V14.01,2013-04-20 19:34:00,
2013-04-20 14:39:00,69.1,35.5,30.04,East,97,5.0,12.0,29,0.00,,CLR,0.00,VWS V14.01,2013-04-20 19:39:00,
2013-04-20 14:44:00,69.4,37.5,30.04,SE,135,6.0,10.0,31,0.00,,CLR,0.00,VWS V14.01,2013-04-20 19:44:00,
2013-04-20 14:49:00,69.4,34.9,30.03,SE,128,6.0,12.0,28,0.00,,CLR,0.00,VWS V14.01,2013-04-20 19:49:00,
2013-04-20 14:54:00,69.4,39.8,30.03,SSE,152,6.0,16.0,34,0.00,,CLR,0.00,VWS V14.01,2013-04-20 19:54:00,
2013-04-20 14:59:00,69.8,38.6,30.03,ESE,107,6.0,16.0,32,0.00,,CLR,0.00,VWS V14.01,2013-04-20 19:59:00,
2013-04-20 15:04:00,70.3,36.6,30.03,SE,135,12.0,12.0,29,0.00,,CLR,0.00,VWS V14.01,2013-04-20 20:04:00,
2013-04-20 15:09:00,69.8,36.1,30.03,East,90,7.0,15.0,29,0.00,,CLR,0.00,VWS V14.01,2013-04-20 20:09:00,
2013-04-20 15:14:00,69.8,35.3,30.03,SE,125,5.0,12.0,28,0.00,,CLR,0.00,VWS V14.01,2013-04-20 20:14:00,
2013-04-20 15:19:00,69.8,37.0,30.02,SSE,166,3.0,12.0,30,0.00,,CLR,0.00,VWS V14.01,2013-04-20 20:19:00,
2013-04-20 15:24:00,70.1,36.4,30.02,ESE,105,5.0,10.0,29,0.00,,CLR,0.00,VWS V14.01,2013-04-20 20:24:00,
2013-04-20 15:29:00,69.8,36.1,30.02,SE,134,7.0,12.0,29,0.00,,CLR,0.00,VWS V14.01,2013-04-20 20:29:00,
2013-04-20 15:34:00,69.8,36.1,30.01,SE,124,0.0,13.0,29,0.00,,CLR,0.00,VWS V14.01,2013-04-20 20:34:00,
2013-04-20 15:39:00,69.9,37.9,30.01,SSE,168,6.0,13.0,31,0.00,,CLR,0.00,VWS V14.01,2013-04-20 20:39:00,
2013-04-20 15:44:00,69.8,37.8,30.01,SSE,150,0.0,9.0,31,0.00,,CLR,0.00,VWS V14.01,2013-04-20 20:44:00,
2013-04-20 15:49:00,69.6,35.1,30.00,SE,146,4.0,13.0,28,0.00,,CLR,0.00,VWS V14.01,2013-04-20 20:49:00,
2013-04-20 15:54:00,69.6,34.2,30.00,SE,146,4.0,15.0,27,0.00,,CLR,0.00,VWS V14.01,2013-04-20 20:54:00,
2013-04-20 15:59:00,69.6,36.8,30.00,SE,144,4.0,15.0,30,0.00,,CLR,0.00,VWS V14.01,2013-04-20 20:59:00,
2013-04-20 16:04:00,69.8,35.3,30.00,SSE,159,4.0,13.0,28,0.00,,CLR,0.00,VWS V14.01,2013-04-20 21:04:00,
2013-04-20 16:09:00,69.6,36.0,30.00,SE,126,6.0,15.0,29,0.00,,CLR,0.00,VWS V14.01,2013-04-20 21:09:00,
2013-04-20 16:14:00,69.4,34.0,30.00,SSE,149,4.0,12.0,27,0.00,,CLR,0.00,VWS V14.01,2013-04-20 21:14:00,
2013-04-20 16:19:00,69.4,34.0,29.99,SSE,159,5.0,13.0,27,0.00,,CLR,0.00,VWS V14.01,2013-04-20 21:19:00,
2013-04-20 16:24:00,69.4,34.0,29.99,SSE,156,6.0,16.0,27,0.00,,CLR,0.00,VWS V14.01,2013-04-20 21:24:00,
2013-04-20 16:29:00,69.6,35.1,29.99,SSE,163,5.0,16.0,28,0.00,,CLR,0.00,VWS V14.01,2013-04-20 21:29:00,
2013-04-20 16:34:00,69.3,33.0,29.98,SSE,152,13.0,13.0,26,0.00,,CLR,0.00,VWS V14.01,2013-04-20 21:34:00,
2013-04-20 16:39:00,69.1,32.8,29.98,SSE,155,7.0,15.0,26,0.00,,CLR,0.00,VWS V14.01,2013-04-20 21:39:00,
2013-04-20 16:44:00,69.3,33.0,29.98,SE,131,2.0,14.0,26,0.00,,CLR,0.00,VWS V14.01,2013-04-20 21:44:00,
2013-04-20 16:49:00,69.6,36.0,29.98,SSE,161,6.0,14.0,29,0.00,,CLR,0.00,VWS V14.01,2013-04-20 21:49:00,
2013-04-20 16:54:00,69.4,34.9,29.98,SE,134,5.0,11.0,28,0.00,,CLR,0.00,VWS V14.01,2013-04-20 21:54:00,
2013-04-20 16:59:00,69.3,33.0,29.98,SSE,165,10.0,14.0,26,0.00,,CLR,0.00,VWS V14.01,2013-04-20 21:59:00,
2013-04-20 17:04:00,69.1,33.7,29.98,South,176,5.0,12.0,27,0.00,,CLR,0.00,VWS V14.01,2013-04-20 22:04:00,
2013-04-20 17:09:00,69.3,36.6,29.98,SE,127,0.0,12.0,30,0.00,,CLR,0.00,VWS V14.01,2013-04-20 22:09:00,
2013-04-20 17:14:00,69.4,35.8,29.98,ESE,121,2.0,7.0,29,0.00,,CLR,0.00,VWS V14.01,2013-04-20 22:14:00,
2013-04-20 17:19:00,69.4,35.8,29.98,South,169,9.0,13.0,29,0.00,,CLR,0.00,VWS V14.01,2013-04-20 22:19:00,
2013-04-20 17:24:00,69.3,33.9,29.98,ESE,115,3.0,7.0,27,0.00,,CLR,0.00,VWS V14.01,2013-04-20 22:24:00,
2013-04-20 17:29:00,69.1,32.8,29.98,SE,134,5.0,15.0,26,0.00,,CLR,0.00,VWS V14.01,2013-04-20 22:29:00,
2013-04-20 17:34:00,68.9,34.5,29.97,SE,126,4.0,10.0,28,0.00,,CLR,0.00,VWS V14.01,2013-04-20 22:34:00,
2013-04-20 17:39:00,68.9,34.5,29.97,SE,134,6.0,11.0,28,0.00,,CLR,0.00,VWS V14.01,2013-04-20 22:39:00,
2013-04-20 17:44:00,68.8,33.5,29.97,SSE,157,2.0,12.0,27,0.00,,CLR,0.00,VWS V14.01,2013-04-20 22:44:00,
2013-04-20 17:49:00,68.8,33.5,29.97,SSE,150,2.0,12.0,27,0.00,,CLR,0.00,VWS V14.01,2013-04-20 22:49:00,
2013-04-20 17:54:00,68.6,33.3,29.97,SE,139,0.0,11.0,27,0.00,,CLR,0.00,VWS V14.01,2013-04-20 22:54:00,
2013-04-20 17:59:00,68.6,35.1,29.97,ESE,123,0.0,11.0,29,0.00,,CLR,0.00,VWS V14.01,2013-04-20 22:59:00,
2013-04-20 18:04:00,68.4,34.9,29.97,SSE,155,5.0,11.0,29,0.00,,CLR,0.00,VWS V14.01,2013-04-20 23:04:00,
2013-04-20 18:09:00,68.4,36.6,29.97,SSE,153,3.0,11.0,31,0.00,,CLR,0.00,VWS V14.01,2013-04-20 23:09:00,
2013-04-20 18:14:00,68.1,35.5,29.97,ESE,113,5.0,11.0,30,0.00,,CLR,0.00,VWS V14.01,2013-04-20 23:14:00,
2013-04-20 18:19:00,67.9,33.6,29.97,SSE,161,3.0,11.0,28,0.00,,CLR,0.00,VWS V14.01,2013-04-20 23:19:00,
2013-04-20 18:24:00,67.9,32.7,29.97,SSE,155,3.0,12.0,27,0.00,,CLR,0.00,VWS V14.01,2013-04-20 23:24:00,
2013-04-20 18:29:00,67.6,33.4,29.97,SSE,160,10.0,12.0,28,0.00,,CLR,0.00,VWS V14.01,2013-04-20 23:29:00,
2013-04-20 18:34:00,67.4,32.3,29.97,South,174,7.0,7.0,27,0.00,,CLR,0.00,VWS V14.01,2013-04-20 23:34:00,
2013-04-20 18:39:00,67.4,33.2,29.97,SSE,149,4.0,11.0,28,0.00,,CLR,0.00,VWS V14.01,2013-04-20 23:39:00,
2013-04-20 18:44:00,67.3,33.1,29.97,SSE,155,5.0,14.0,28,0.00,,CLR,0.00,VWS V14.01,2013-04-20 23:44:00,
2013-04-20 18:49:00,67.1,33.8,29.96,SE,146,2.0,14.0,29,0.00,,CLR,0.00,VWS V14.01,2013-04-20 23:49:00,
2013-04-20 18:54:00,67.1,32.0,29.96,SE,124,5.0,9.0,27,0.00,,CLR,0.00,VWS V14.01,2013-04-20 23:54:00,
2013-04-20 18:59:00,66.9,32.8,29.96,SE,141,0.0,10.0,28,0.00,,CLR,0.00,VWS V14.01,2013-04-20 23:59:00,
2013-04-20 19:04:00,66.8,35.2,29.96,SSE,159,5.0,6.0,31,0.00,,CLR,0.00,VWS V14.01,2013-04-21 00:04:00,
2013-04-20 19:09:00,66.6,33.4,29.96,SE,146,0.0,14.0,29,0.00,,CLR,0.00,VWS V14.01,2013-04-21 00:09:00,
2013-04-20 19:14:00,66.6,35.8,29.96,SSE,149,5.0,10.0,32,0.00,,CLR,0.00,VWS V14.01,2013-04-21 00:14:00,
2013-04-20 19:19:00,66.6,33.4,29.96,SSE,151,4.0,10.0,29,0.00,,CLR,0.00,VWS V14.01,2013-04-21 00:19:00,
2013-04-20 19:24:00,66.4,34.0,29.96,SSE,155,3.0,5.0,30,0.00,,CLR,0.00,VWS V14.01,2013-04-21 00:24:00,
2013-04-20 19:29:00,66.3,36.4,29.96,SSE,161,2.0,5.0,33,0.00,,CLR,0.00,VWS V14.01,2013-04-21 00:29:00,
2013-04-20 19:34:00,66.1,36.2,29.96,SSE,165,6.0,6.0,33,0.00,,CLR,0.00,VWS V14.01,2013-04-21 00:34:00,
2013-04-20 19:39:00,65.8,36.7,29.96,ESE,121,2.0,6.0,34,0.00,,CLR,0.00,VWS V14.01,2013-04-21 00:39:00,
2013-04-20 19:44:00,65.5,36.4,29.96,ESE,115,0.0,5.0,34,0.00,,CLR,0.00,VWS V14.01,2013-04-21 00:44:00,
2013-04-20 19:49:00,65.3,37.0,29.97,SE,132,0.0,5.0,35,0.00,,CLR,0.00,VWS V14.01,2013-04-21 00:49:00,
2013-04-20 19:54:00,65.0,36.0,29.97,SE,133,0.0,6.0,34,0.00,,CLR,0.00,VWS V14.01,2013-04-21 00:54:00,
2013-04-20 19:59:00,64.7,37.2,29.97,SE,145,2.0,6.0,36,0.00,,CLR,0.00,VWS V14.01,2013-04-21 00:59:00,
2013-04-20 20:04:00,64.3,36.8,29.98,SE,141,2.0,3.0,36,0.00,,CLR,0.00,VWS V14.01,2013-04-21 01:04:00,
2013-04-20 20:09:00,64.2,36.7,29.98,SE,145,2.0,5.0,36,0.00,,CLR,0.00,VWS V14.01,2013-04-21 01:09:00,
2013-04-20 20:14:00,63.9,37.1,29.98,SE,146,2.0,5.0,37,0.00,,CLR,0.00,VWS V14.01,2013-04-21 01:14:00,
2013-04-20 20:19:00,63.7,37.0,29.98,SSE,150,0.0,5.0,37,0.00,,CLR,0.00,VWS V14.01,2013-04-21 01:19:00,
2013-04-20 20:25:00,63.5,36.8,29.98,SE,141,2.0,5.0,37,0.00,,CLR,0.00,VWS V14.01,2013-04-21 01:25:00,
2013-04-20 20:30:00,63.4,36.7,29.98,SSE,154,4.0,5.0,37,0.00,,CLR,0.00,VWS V14.01,2013-04-21 01:30:00,
2013-04-20 20:35:00,63.1,37.1,29.99,SSE,157,0.0,4.0,38,0.00,,CLR,0.00,VWS V14.01,2013-04-21 01:35:00,
2013-04-20 20:40:00,62.9,37.6,29.99,SSE,161,0.0,5.0,39,0.00,,CLR,0.00,VWS V14.01,2013-04-21 01:40:00,
2013-04-20 20:45:00,62.6,37.3,29.99,SSE,154,0.0,5.0,39,0.00,,CLR,0.00,VWS V14.01,2013-04-21 01:45:00,
2013-04-20 20:50:00,62.4,37.8,30.00,SSE,154,3.0,5.0,40,0.00,,CLR,0.00,VWS V14.01,2013-04-21 01:50:00,
2013-04-20 20:55:00,62.3,37.7,30.00,SE,135,0.0,5.0,40,0.00,,CLR,0.00,VWS V14.01,2013-04-21 01:55:00,
2013-04-20 21:00:00,62.1,38.8,30.00,SSE,152,2.0,5.0,42,0.00,,CLR,0.00,VWS V14.01,2013-04-21 02:00:00,
2013-04-20 21:05:00,62.0,38.7,30.01,SE,146,0.0,4.0,42,0.00,,CLR,0.00,VWS V14.01,2013-04-21 02:05:00,
2013-04-20 21:10:00,61.8,39.7,30.01,SE,146,0.0,4.0,44,0.00,,CLR,0.00,VWS V14.01,2013-04-21 02:10:00,
2013-04-20 21:15:00,61.6,39.5,30.01,SSE,162,0.0,7.0,44,0.00,,CLR,0.00,VWS V14.01,2013-04-21 02:15:00,
2013-04-20 21:20:00,61.5,39.4,30.02,SSE,159,0.0,7.0,44,0.00,,CLR,0.00,VWS V14.01,2013-04-21 02:20:00,
2013-04-20 21:25:00,61.3,39.2,30.02,SE,126,0.0,4.0,44,0.00,,CLR,0.00,VWS V14.01,2013-04-21 02:25:00,
2013-04-20 21:30:00,61.2,38.5,30.02,SSE,161,0.0,6.0,43,0.00,,CLR,0.00,VWS V14.01,2013-04-21 02:30:00,
2013-04-20 21:35:00,61.2,38.0,30.03,SSE,152,5.0,9.0,42,0.00,,CLR,0.00,VWS V14.01,2013-04-21 02:35:00,
2013-04-20 21:40:00,61.0,38.4,30.03,SSE,155,0.0,9.0,43,0.00,,CLR,0.00,VWS V14.01,2013-04-21 02:40:00,
2013-04-20 21:45:00,61.0,39.0,30.03,SSE,149,0.0,7.0,44,0.00,,CLR,0.00,VWS V14.01,2013-04-21 02:45:00,
2013-04-20 21:50:00,60.9,38.9,30.03,SSE,148,5.0,7.0,44,0.00,,CLR,0.00,VWS V14.01,2013-04-21 02:50:00,
2013-04-20 21:55:00,60.7,38.7,30.03,SSE,150,3.0,6.0,44,0.00,,CLR,0.00,VWS V14.01,2013-04-21 02:55:00,
2013-04-20 22:00:00,60.7,38.7,30.03,SSE,161,3.0,6.0,44,0.00,,CLR,0.00,VWS V14.01,2013-04-21 03:00:00,
2013-04-20 22:05:00,60.5,38.5,30.04,South,170,3.0,9.0,44,0.00,,CLR,0.00,VWS V14.01,2013-04-21 03:05:00,
2013-04-20 22:10:00,60.5,39.1,30.04,SSE,165,5.0,9.0,45,0.00,,CLR,0.00,VWS V14.01,2013-04-21 03:10:00,
2013-04-20 22:15:00,60.4,38.4,30.04,South,180,1.0,9.0,44,0.00,,CLR,0.00,VWS V14.01,2013-04-21 03:15:00,
2013-04-20 22:20:00,60.4,38.4,30.05,SE,138,1.0,9.0,44,0.00,,CLR,0.00,VWS V14.01,2013-04-21 03:20:00,
2013-04-20 22:25:00,60.2,38.8,30.05,South,176,4.0,8.0,45,0.00,,CLR,0.00,VWS V14.01,2013-04-21 03:25:00,
2013-04-20 22:30:00,60.1,38.7,30.05,SSE,157,0.0,8.0,45,0.00,,CLR,0.00,VWS V14.01,2013-04-21 03:30:00,
2013-04-20 22:35:00,60.2,38.8,30.05,South,169,3.0,7.0,45,0.00,,CLR,0.00,VWS V14.01,2013-04-21 03:35:00,
2013-04-20 22:40:00,60.2,39.4,30.05,SSE,165,1.0,10.0,46,0.00,,CLR,0.00,VWS V14.01,2013-04-21 03:40:00,
2013-04-20 22:45:00,60.1,39.8,30.05,SSE,157,2.0,8.0,47,0.00,,CLR,0.00,VWS V14.01,2013-04-21 03:45:00,
2013-04-20 22:50:00,60.1,40.4,30.05,SSE,148,4.0,9.0,48,0.00,,CLR,0.00,VWS V14.01,2013-04-21 03:50:00,
2013-04-20 22:55:00,59.9,39.6,30.05,SSE,148,3.0,10.0,47,0.00,,CLR,0.00,VWS V14.01,2013-04-21 03:55:00,
2013-04-20 23:00:00,59.9,40.2,30.04,SSE,157,4.0,12.0,48,0.00,,CLR,0.00,VWS V14.01,2013-04-21 04:00:00,
2013-04-20 23:01:00,59.9,40.2,30.04,SSE,158,0.0,12.0,48,0.00,,CLR,0.00,VWS V14.01,2013-04-21 04:01:00,
2013-04-20 23:06:00,59.8,40.1,30.04,SSE,162,2.0,7.0,48,0.00,,CLR,0.00,VWS V14.01,2013-04-21 04:06:00,
2013-04-20 23:11:00,59.6,40.4,30.04,SSE,160,0.0,0.0,49,0.00,,CLR,0.00,VWS V14.01,2013-04-21 04:11:00,
2013-04-20 23:16:00,59.5,40.9,30.05,South,174,3.0,9.0,50,0.00,,CLR,0.00,VWS V14.01,2013-04-21 04:16:00,
2013-04-20 23:21:00,59.5,40.9,30.05,SSE,157,0.0,0.0,50,0.00,,CLR,0.00,VWS V14.01,2013-04-21 04:21:00,
2013-04-20 23:26:00,59.3,40.2,30.05,South,172,9.0,9.0,49,0.00,,CLR,0.00,VWS V14.01,2013-04-21 04:26:00,
2013-04-20 23:31:00,59.2,40.1,30.04,SSE,157,0.0,0.0,49,0.00,,CLR,0.00,VWS V14.01,2013-04-21 04:31:00,
2013-04-20 23:36:00,59.0,40.9,30.04,SE,145,2.0,9.0,51,0.00,,CLR,0.00,VWS V14.01,2013-04-21 04:36:00,
2013-04-20 23:41:00,58.9,40.8,30.04,SSE,152,2.0,4.0,51,0.00,,CLR,0.00,VWS V14.01,2013-04-21 04:41:00,
2013-04-20 23:46:00,58.7,41.1,30.05,South,173,4.0,9.0,52,0.00,,CLR,0.00,VWS V14.01,2013-04-21 04:46:00,
2013-04-20 23:51:00,58.6,41.5,30.05,SSE,168,0.0,0.0,53,0.00,,CLR,0.00,VWS V14.01,2013-04-21 04:51:00,
2013-04-20 23:56:00,58.4,41.8,30.05,SSE,158,2.0,6.0,54,0.00,,CLR,0.00,VWS V14.01,2013-04-21 04:56:00,